Theta_e
321 321 321 320 321 320 321 322 321 321 322 322 323 322 321 321 320 319 319 318 317 317
321 321 321 321 321 322 321 322 321 322 321 322 322 322 322 323 322 321 320 320 318 317
322 322 322 320 321 322 323 321 321 322 322 322 322 322 322 323 323 322 321 319 317 316
316 318 320 322 322 322 322 321 322 324 324 324 324 324 323 322 322 319 319 313 315 314
309 311 313 315 317 320 322 322 324 324 322 322 321 320 318 317 314 315 314 312 309 311
301 303 305 305 306 311 314 316 316 316 316 315 314 312 311 312 310 310 311 308 307 307
297 298 298 298 301 305 306 306 306 307 307 307 307 305 303 304 305 304 303 302 302 301
296 296 295 294 294 298 299 300 300 300 300 300 300 297 298 298 299 299 297 295 295 295
295 294 293 293 292 291 291 292 293 293 294 295 293 296 296 296 296 295 292 291 289 290
291 290 290 290 290 290 290 291 291 291 292 292 292 295 295 293 292 291 291 289 288 288
289 289 289 289 290 290 290 290 289 289 289 289 290 294 292 290 289 288 288 288 288 287
289 288 290 288 288 288 287 286 286 286 287 287 287 292 291 288 287 286 285 286 286 287
290 289 288 288 286 285 286 285 285 286 286 286 286 291 290 288 286 285 284 284 285 285
287 288 288 286 285 286 286 286 285 285 285 286 286 288 290 289 285 285 284 284 283 284
Wind_Speed
14 10 10 10 8 8 8 8 7 9 10 11 11 10 10 9 9 9 10 14 11 9
11 12 11 9 8 8 7 6 7 10 11 11 11 11 11 10 11 11 12 11 10 9
10 10 11 7 11 10 9 8 8 9 10 11 12 13 13 12 13 13 10 8 9 9
6 7 7 9 9 10 9 8 10 12 12 12 13 12 11 13 10 10 11 7 11 12
5 4 5 5 5 6 9 9 12 10 9 8 7 7 6 7 6 8 9 9 8 12
4 4 4 4 3 2 3 4 5 6 7 6 5 5 5 6 7 8 8 7 8 7
4 4 4 4 4 4 4 4 4 4 2 1 2 3 2 3 3 3 2 1 2 3
5 5 5 6 5 4 3 3 3 2 3 3 2 3 2 1 1 2 3 3 3 3
6 6 5 5 4 5 4 3 4 4 3 2 2 1 4 5 4 5 5 5 4 5
6 5 4 4 4 4 4 3 3 3 2 3 4 4 2 1 2 4 5 6 5 4
6 6 4 4 4 4 3 3 3 4 4 4 4 6 6 8 5 6 5 5 5 6
6 6 6 5 5 3 3 2 3 2 4 4 4 7 9 8 6 5 4 4 4 5
6 6 5 5 4 2 2 3 3 4 3 4 3 6 6 5 3 5 3 3 2 2
5 5 5 5 2 4 5 5 4 4 4 4 3 4 6 5 3 3 3 2 2 1
Wind_Direction
210 211 216 209 207 213 214 218 199 201 213 220 218 214 209 217 223 220 227 230 227 227
207 209 214 211 199 211 211 205 198 201 209 220 220 219 216 227 230 221 231 239 238 232
203 206 214 194 209 210 213 201 200 208 211 215 218 218 218 230 231 230 228 219 222 228
190 194 192 207 210 210 208 201 211 218 219 220 221 225 224 230 234 227 236 220 225 230
194 194 208 218 219 203 213 210 221 226 228 228 226 224 223 223 220 222 229 226 212 232
156 156 164 159 163 181 204 212 206 212 207 208 218 210 218 218 210 213 216 207 214 223
146 139 117 88 75 57 31 37 34 35 21 169 164 238 229 259 245 245 281 276 230 212
116 109 106 95 84 67 69 62 48 69 58 51 59 48 42 228 126 146 126 88 75 81
123 120 112 110 105 93 70 56 42 30 38 35 13 313 183 179 174 152 161 149 88 81
124 118 111 107 96 82 77 66 68 55 24 26 13 3 331 193 163 149 148 140 131 104
129 118 109 96 90 90 69 59 37 31 42 61 35 48 58 50 53 56 61 90 114 122
147 141 141 132 122 84 88 68 65 65 62 77 54 85 100 108 103 94 90 110 132 145
149 140 143 145 123 110 94 100 94 76 61 78 75 91 96 104 106 106 113 76 57 185
130 141 135 126 115 118 108 108 83 85 64 73 73 83 83 83 57 86 98 113 158 186